Tyler, TX

10:50 PM CDT on April 22, 2018 (GMT -0500)
Tyler Pounds

Weather History for KTYR - September, 2013

Change the Weather History Date:

Friday, September 20, 2013

  Actual Average Record
Temperature  
Mean Temperature 74 °F 75 °F  
Max Temperature 77 °F 85 °F 102 °F (1956)
Min Temperature 70 °F 65 °F 44 °F (1981)
Degree Days  
Heating Degree Days 0 0  
Month to date heating degree days 0 0  
Since 1 July heating degree days 0 0  
Cooling Degree Days 9 10  
Month to date cooling degree days 393 257  
Year to date cooling degree days 2509 2179  
Growing Degree Days 23 (Base 50)    
Moisture  
Dew Point 72 °F    
Average Humidity 91    
Maximum Humidity 100    
Minimum Humidity 82    
Precipitation  
Precipitation 5.23 in 0.11 in 6.47 in (1979)
Month to date precipitation 5.41 2.28  
Year to date precipitation 25.02 31.54  
Snow  
Snow 0.00 in - - ()
Month to date snowfall 0.0  
Since 1 July snowfall 0.0  
Since 1 September snowfall 0.0  
Snow Depth 0.00 in    
Sea Level Pressure  
Sea Level Pressure 29.86 in    
Wind  
Wind Speed 9 mph (ENE)    
Max Wind Speed 23 mph    
Max Gust Speed 30 mph    
Visibility 6 miles    
Events Fog , Rain    
T = Trace of Precipitation, MM = Missing Value Source: NWS Daily Summary

Daily Weather History Graph

Daily Weather History Graph

Search for Another Location

Airport or City:

Astronomy

Sep. 20, 2013 Rise Set
Actual Time 7:08 AM CDT 7:20 PM CDT
Civil Twilight 6:44 AM CDT 7:45 PM CDT
Nautical Twilight 6:15 AM CDT 8:13 PM CDT
Astronomical Twilight 5:46 AM CDT 8:42 PM CDT
Moon 8:03 PM CDT (9/20) 8:17 AM CDT (9/20)
Length of Visible Light 13h 00m
Length of Day
12h 11m
Full, 98% of the Moon is Illuminated
Sep 20
Full
Sep 26
Last Quarter
Oct 4
New
Oct 11
First Quarter
Oct 18
Full

Hourly Weather History & Observations

Time (CDT) Temp. Dew Point Humidity Pressure Visibility Wind Dir Wind Speed Gust Speed Precip Events Conditions
12:53 AM 77.0 °F 71.1 °F 82% 29.92 in 10.0 mi SE 8.1 mph - N/A   Overcast
1:53 AM 77.0 °F 71.1 °F 82% 29.91 in 10.0 mi SSE 5.8 mph - N/A   Overcast
2:50 AM 75.2 °F 71.6 °F 89% 29.92 in 10.0 mi SE 6.9 mph - 0.00 in Rain Light Rain
2:53 AM 75.9 °F 72.0 °F 87% 29.89 in 10.0 mi SE 5.8 mph - 0.00 in Rain Light Rain
3:39 AM 75.2 °F 71.6 °F 89% 29.91 in 10.0 mi SE 5.8 mph - 0.00 in   Overcast
3:53 AM 75.9 °F 73.0 °F 91% 29.88 in 10.0 mi SE 6.9 mph - 0.00 in Rain Light Rain
4:53 AM 75.9 °F 73.0 °F 91% 29.86 in 10.0 mi SSE 5.8 mph - 0.01 in Rain Light Rain
5:53 AM 75.9 °F 73.0 °F 91% 29.86 in 10.0 mi SSE 5.8 mph - 0.00 in Rain Light Rain
6:16 AM 75.2 °F 73.4 °F 94% 29.88 in 10.0 mi SE 5.8 mph - 0.00 in   Overcast
6:25 AM 75.2 °F 73.4 °F 94% 29.88 in 10.0 mi SE 5.8 mph - 0.00 in Rain Light Rain
6:53 AM 75.0 °F 73.0 °F 94% 29.85 in 4.0 mi SE 8.1 mph - 0.05 in Rain Rain
7:34 AM 75.2 °F 73.4 °F 94% 29.86 in 10.0 mi SE 8.1 mph - 0.03 in Rain Light Rain
7:53 AM 75.0 °F 73.9 °F 96% 29.84 in 3.0 mi SE 8.1 mph - 0.09 in Rain Heavy Rain
8:09 AM 75.2 °F 73.4 °F 94% 29.87 in 10.0 mi SE 5.8 mph - 0.01 in Rain Light Rain
8:22 AM 75.2 °F 73.4 °F 94% 29.87 in 1.8 mi SE 5.8 mph - 0.22 in Rain Heavy Rain
8:29 AM 75.2 °F 73.4 °F 94% 29.87 in 1.2 mi Calm Calm - 0.38 in Rain Heavy Rain
8:36 AM 75.2 °F 75.2 °F 100% 29.87 in 2.0 mi ESE 3.5 mph - 0.43 in Rain Heavy Rain
8:40 AM 75.2 °F 73.4 °F 94% 29.87 in 3.0 mi SE 4.6 mph - 0.45 in Rain Heavy Rain
8:53 AM 75.0 °F 73.9 °F 96% 29.84 in 5.0 mi SE 9.2 mph - 0.50 in Rain Rain
9:02 AM 75.2 °F 73.4 °F 94% 29.87 in 4.0 mi SE 4.6 mph - 0.03 in Rain Heavy Rain
9:17 AM 75.2 °F 73.4 °F 94% 29.86 in 2.5 mi ESE 5.8 mph - 0.11 in Rain Rain
9:31 AM 75.2 °F 73.4 °F 94% 29.86 in 1.0 mi ESE 6.9 mph - 0.36 in Rain Heavy Rain
9:53 AM 75.0 °F 73.9 °F 96% 29.84 in 1.5 mi East 6.9 mph - 0.70 in Rain Heavy Rain
10:01 AM 75.2 °F 73.4 °F 94% 29.86 in 2.5 mi ESE 5.8 mph - 0.06 in Rain Heavy Rain
10:14 AM 75.2 °F 73.4 °F 94% 29.86 in 2.5 mi SE 3.5 mph - 0.14 in Rain Heavy Rain
10:21 AM 75.2 °F 73.4 °F 94% 29.87 in 0.8 mi West 5.8 mph - 0.32 in Rain Heavy Rain
10:53 AM 73.0 °F 72.0 °F 96% 29.83 in 0.8 mi NNE 12.7 mph - 1.13 in Rain Heavy Rain
11:08 AM 73.4 °F 71.6 °F 94% 29.86 in 0.5 mi North 17.3 mph 23.0 mph 0.55 in Fog , Rain Heavy Rain
11:20 AM 71.6 °F 71.6 °F 100% 29.86 in 0.8 mi NNE 19.6 mph 26.5 mph 0.94 in Rain Heavy Rain
11:32 AM 71.6 °F 71.6 °F 100% 29.84 in 1.5 mi NNE 20.7 mph 27.6 mph 1.12 in Rain Heavy Rain
11:41 AM 71.6 °F 71.6 °F 100% 29.88 in 1.2 mi North 13.8 mph 29.9 mph 1.26 in Rain Heavy Rain
11:47 AM 71.6 °F 71.6 °F 100% 29.90 in 0.8 mi Variable 6.9 mph 25.3 mph 1.49 in Rain Heavy Rain
11:53 AM 72.0 °F 71.1 °F 97% 29.86 in 0.5 mi NE 17.3 mph 20.7 mph 1.89 in Fog , Rain Heavy Rain
12:05 PM 71.6 °F 71.6 °F 100% 29.85 in 1.0 mi NE 16.1 mph 23.0 mph 0.30 in Rain Heavy Rain
12:11 PM 71.6 °F 71.6 °F 100% 29.86 in 3.0 mi ENE 13.8 mph 23.0 mph 0.31 in Rain Rain
12:23 PM 71.6 °F 71.6 °F 100% 29.86 in 5.0 mi NE 11.5 mph 20.7 mph 0.35 in Rain Heavy Rain
12:53 PM 72.0 °F 71.1 °F 97% 29.84 in 5.0 mi NE 8.1 mph - 0.43 in Rain Rain
1:00 PM 71.6 °F 71.6 °F 100% 29.86 in 7.0 mi NE 8.1 mph - 0.01 in Rain Rain
1:53 PM 71.1 °F 70.0 °F 96% 29.81 in 6.0 mi NNE 9.2 mph - 0.19 in Rain Rain
2:15 PM 71.6 °F 71.6 °F 100% 29.84 in 9.0 mi NE 8.1 mph - 0.04 in Rain Rain
2:53 PM 72.0 °F 71.1 °F 97% 29.82 in 10.0 mi NE 12.7 mph - 0.05 in Rain Light Rain
3:08 PM 73.4 °F 71.6 °F 94% 29.81 in 10.0 mi NE 12.7 mph 18.4 mph 0.01 in Rain Light Rain
3:28 PM 73.4 °F 71.6 °F 94% 29.83 in 10.0 mi NE 9.2 mph 18.4 mph 0.01 in Rain Light Rain
3:53 PM 73.0 °F 71.1 °F 93% 29.82 in 10.0 mi NNE 8.1 mph - 0.01 in Rain Light Rain
4:14 PM 71.6 °F 71.6 °F 100% 29.85 in 10.0 mi NNE 8.1 mph - 0.01 in Rain Light Rain
4:22 PM 73.4 °F 71.6 °F 94% 29.84 in 10.0 mi NNE 9.2 mph - 0.02 in Rain Light Rain
4:30 PM 71.6 °F 69.8 °F 94% 29.83 in 8.0 mi NE 9.2 mph - 0.03 in Rain Light Rain
4:53 PM 72.0 °F 70.0 °F 93% 29.81 in 6.0 mi NE 9.2 mph - 0.10 in Rain Rain
5:00 PM 71.6 °F 69.8 °F 94% 29.82 in 7.0 mi NE 10.4 mph - 0.01 in Rain Rain
5:07 PM 71.6 °F 69.8 °F 94% 29.82 in 8.0 mi NE 11.5 mph - 0.02 in Rain Rain
5:18 PM 71.6 °F 69.8 °F 94% 29.85 in 7.0 mi NNE 8.1 mph - 0.04 in Rain Rain
5:53 PM 72.0 °F 71.1 °F 97% 29.83 in 10.0 mi North 8.1 mph - 0.05 in Rain Light Rain
6:53 PM 72.0 °F 70.0 °F 93% 29.83 in 10.0 mi North 8.1 mph - 0.01 in Rain Light Rain
7:18 PM 71.6 °F 69.8 °F 94% 29.86 in 10.0 mi NNW 4.6 mph - 0.01 in Rain Light Rain
7:27 PM 71.6 °F 69.8 °F 94% 29.87 in 10.0 mi North 4.6 mph - 0.01 in Rain Light Rain
7:53 PM 72.0 °F 71.1 °F 97% 29.85 in 10.0 mi North 4.6 mph - 0.01 in   Overcast
8:05 PM 71.6 °F 71.6 °F 100% 29.87 in 10.0 mi North 5.8 mph - N/A   Overcast
8:53 PM 71.1 °F 71.1 °F 100% 29.84 in 8.0 mi North 8.1 mph - N/A   Overcast
9:08 PM 71.6 °F 71.6 °F 100% 29.86 in 10.0 mi North 6.9 mph - N/A   Overcast
9:24 PM 71.6 °F 71.6 °F 100% 29.86 in 8.0 mi NNE 9.2 mph - 0.00 in Rain Light Rain
9:53 PM 71.1 °F 70.0 °F 96% 29.84 in 10.0 mi North 9.2 mph - 0.00 in   Overcast
10:01 PM 71.6 °F 69.8 °F 94% 29.86 in 10.0 mi NNE 11.5 mph - N/A   Overcast
10:53 PM 71.1 °F 69.1 °F 93% 29.87 in 10.0 mi NNE 8.1 mph - N/A   Overcast
11:09 PM 71.6 °F 69.8 °F 94% 29.87 in 10.0 mi NNE 11.5 mph - N/A   Overcast
11:23 PM 69.8 °F 69.8 °F 100% 29.87 in 5.0 mi North 11.5 mph - 0.00 in Rain Light Rain
11:53 PM 70.0 °F 69.1 °F 97% 29.87 in 5.0 mi NNE 11.5 mph - 0.00 in Rain Light Rain